EHI
2 1 0 0 0 0 0 1 1 1 0 0 0 0 1 3 5 6 6 10 15 15 14 13 12 10 11 12 10 7 5 3 2 2 2 1 1 2 2 2 1 0 0
4 3 1 1 1 0 1 2 2 2 1 1 1 1 2 4 5 6 6 8 12 13 12 13 12 10 10 11 10 7 5 3 3 3 3 1 1 1 1 1 0 0 0
5 4 3 2 2 1 1 2 2 3 3 2 2 3 3 4 5 6 5 5 6 8 10 13 13 11 10 10 10 9 7 6 6 5 4 2 1 0 0 0 0 0 0
5 5 5 4 3 1 1 2 2 3 3 2 2 2 2 2 2 4 5 4 3 4 6 12 14 12 11 11 11 11 11 11 10 8 6 4 3 2 1 0 1 1 0
7 7 6 5 4 2 1 1 1 2 1 1 1 1 1 1 2 3 5 5 4 4 5 9 12 12 12 12 12 13 13 13 12 10 9 8 7 6 4 3 3 3 2
8 7 6 4 3 2 2 1 1 0 0 1 1 1 2 3 3 3 5 5 5 5 6 7 8 9 11 13 14 15 14 13 13 13 12 12 11 11 10 7 6 5 5
7 6 4 3 2 1 1 1 0 1 1 2 2 2 3 3 3 3 4 4 4 6 7 7 6 6 8 11 13 15 17 16 15 16 16 15 14 13 12 10 8 7 6
5 4 3 2 1 1 1 1 1 2 3 3 3 4 4 3 1 1 2 3 3 4 6 7 5 5 6 8 11 14 18 19 18 18 18 17 15 14 12 10 9 7 7
4 3 3 2 2 2 2 2 3 3 3 3 4 4 4 3 1 1 2 3 3 3 4 4 4 4 5 7 8 11 15 17 18 18 17 17 17 15 12 10 9 9 8
3 4 4 4 3 3 3 3 4 5 4 3 3 4 4 3 2 2 2 3 3 4 3 3 2 3 3 5 6 8 10 11 12 14 16 18 18 16 12 10 9 8 7
3 4 6 7 5 4 3 3 4 5 5 4 3 3 3 3 3 3 3 3 3 3 3 2 3 3 2 3 4 5 5 6 6 8 12 15 17 15 13 10 8 6 6
4 5 6 7 7 5 4 4 4 4 4 3 2 2 2 2 2 2 2 1 1 1 1 1 2 3 3 2 2 3 3 4 4 4 6 9 12 13 12 10 8 6 6
3 4 5 7 7 6 5 4 4 3 2 1 1 1 1 1 1 1 1 1 0 0 0 1 1 3 3 3 2 3 4 4 3 2 2 4 6 9 10 9 7 6 6
2 3 4 6 7 7 6 4 2 1 1 0 0 0 0 0 0 0 1 1 1 0 0 1 1 2 3 3 3 3 4 4 1 0 1 1 2 4 6 5 5 4 4
2 2 4 5 5 6 7 5 3 1 0 0 0 0 0 0 0 0 1 2 1 1 1 1 0 1 1 2 2 1 2 2 0 0 0 0 0 1 2 2 2 2 2
3 3 4 5 4 5 7 7 5 3 1 1 1 1 0 0 0 0 1 2 3 3 2 1 1 1 0 1 1 1 0 0 0 0 0 0 0 0 0 1 1 1 1
5 4 3 3 4 5 7 9 8 8 6 5 4 3 2 2 1 1 2 4 5 5 4 2 2 2 1 1 1 0 0 0 0 0 0 0 0 0 0 0 0 0 0
6 5 3 3 4 6 9 11 11 12 12 10 8 6 5 4 4 4 4 5 5 6 5 3 3 3 3 2 1 0 1 2 1 1 0 0 0 0 0 0 0 0 0
8 8 7 7 8 9 11 12 12 13 13 13 11 10 9 8 7 6 5 4 4 5 4 3 3 3 3 3 1 1 2 3 3 2 1 1 0 0 0 0 0 0 0
13 14 14 13 13 12 12 13 13 12 13 13 12 12 11 11 9 7 5 3 3 3 3 2 3 3 3 3 3 2 2 2 2 2 2 2 1 1 0 0 0 0 0
22 21 20 19 18 16 15 14 13 12 12 12 12 12 12 10 8 5 2 1 1 1 1 1 1 2 3 3 3 3 2 1 1 1 3 3 3 2 1 0 0 0 0
25 26 26 24 20 18 15 12 11 11 11 11 10 10 11 9 6 2 1 0 0 0 0 0 1 2 3 3 3 3 3 2 1 1 3 4 4 3 2 1 0 0 0
24 26 27 26 22 18 14 8 6 8 10 10 9 9 10 9 6 3 2 0 0 0 0 0 1 2 3 3 3 3 3 3 3 3 3 4 4 4 3 2 1 0 0
22 23 25 25 22 18 13 7 4 6 9 9 9 8 8 8 6 4 3 2 1 0 1 1 1 3 3 3 2 2 3 3 3 3 3 3 3 4 3 3 2 1 0
19 20 21 21 19 17 14 7 4 6 8 9 8 7 6 5 4 3 4 4 3 1 1 1 1 2 2 1 1 1 1 3 3 3 3 3 3 3 3 3 3 2 1
15 16 17 17 16 16 15 8 4 6 9 8 7 6 5 4 2 2 3 5 4 2 1 1 1 1 1 0 0 0 1 2 3 3 3 3 3 3 3 3 3 2 1
Wind_Speed
3 2 2 2 2 2 2 2 2 2 3 3 3 3 4 4 4 4 3 10 11 12 12 12 11 11 11 11 11 11 11 11 11 10 10 10 10 10 10 10 10 10 10
3 3 2 2 3 3 3 3 3 3 2 2 3 3 3 4 4 5 4 6 10 11 12 12 11 11 11 11 11 11 11 11 11 10 11 11 10 10 10 9 9 9 10
4 3 3 3 3 3 3 2 2 1 1 2 2 3 2 4 5 5 5 4 5 10 12 12 12 12 11 11 11 11 11 11 11 12 11 11 10 10 10 10 10 9 10
4 3 3 2 3 3 2 2 2 1 1 1 1 2 2 2 4 5 4 5 4 5 7 12 12 11 12 12 12 12 12 12 12 13 12 12 12 11 10 10 10 10 10
4 3 2 2 3 2 2 3 2 2 2 1 2 2 1 2 3 4 5 5 5 4 4 7 10 11 11 12 12 12 12 11 11 12 13 14 13 12 12 12 12 11 11
3 3 2 2 2 2 2 2 2 2 2 2 2 1 1 2 2 3 4 4 4 5 4 5 4 5 9 9 9 11 11 11 10 11 13 13 13 12 12 12 12 12 12
3 3 2 2 2 2 2 2 2 1 1 1 1 1 2 2 2 2 2 2 4 5 4 4 3 3 3 7 8 9 10 11 10 10 12 12 12 12 12 12 12 12 12
3 3 3 2 2 2 1 2 2 1 1 1 2 1 2 3 2 2 2 3 4 3 4 5 4 4 3 2 4 8 9 10 10 11 11 12 12 12 12 12 12 12 12
2 3 3 3 2 2 2 3 3 3 1 1 2 3 2 2 2 2 1 2 2 2 2 3 4 4 4 3 3 5 8 8 10 12 11 11 11 11 12 12 12 12 12
1 2 3 3 3 2 3 3 2 2 2 2 1 1 2 3 1 2 2 2 2 2 2 3 3 3 4 3 3 5 7 7 8 10 10 10 10 10 11 12 13 12 12
1 2 2 2 2 2 2 2 2 2 2 2 2 1 1 0 1 2 2 2 2 2 2 3 2 3 3 3 3 5 6 6 7 7 8 9 10 10 10 11 11 11 11
1 1 2 2 2 2 2 2 2 2 2 2 2 1 1 1 2 2 2 2 2 2 2 2 2 3 3 3 4 6 6 6 6 6 7 7 8 9 10 10 11 10 10
1 2 2 2 1 2 2 2 2 2 2 2 2 2 2 2 2 2 2 1 2 2 2 2 2 2 3 2 3 4 4 5 5 6 6 7 7 7 8 8 9 8 8
2 2 2 2 2 2 2 1 1 2 2 2 3 2 1 2 2 2 2 2 1 2 2 3 1 2 2 2 3 4 3 4 5 6 6 6 5 5 5 6 6 6 5
2 2 2 2 2 2 1 1 1 1 1 2 2 2 1 1 1 2 2 3 3 2 3 3 2 2 2 2 4 3 3 5 6 6 6 5 5 5 5 4 5 5 4
2 2 2 2 2 2 1 1 1 1 1 1 1 1 1 1 1 1 2 2 2 3 3 3 2 2 2 3 4 3 4 6 7 7 7 6 6 5 5 5 5 5 5
3 3 3 2 2 2 2 2 2 1 1 2 2 1 2 2 1 2 1 1 2 2 2 3 2 2 2 2 2 2 3 3 3 7 7 7 7 6 5 5 5 5 5
4 4 3 3 3 2 2 2 2 2 2 2 3 2 2 2 2 2 1 2 2 2 2 3 3 2 3 3 3 3 3 3 3 5 7 7 7 6 6 6 5 5 5
3 3 3 3 3 3 3 3 3 3 3 3 3 3 3 2 2 2 2 2 2 1 1 2 3 2 2 2 1 2 3 2 3 4 5 7 7 7 7 6 6 6 6
4 4 4 4 4 3 3 3 2 2 3 3 3 3 3 4 4 3 2 2 1 1 1 1 2 2 2 2 1 2 2 2 3 2 3 3 4 6 7 7 7 7 6
4 4 3 3 3 3 3 3 3 3 3 3 3 3 4 4 5 4 3 2 2 1 1 1 2 2 2 2 2 2 2 2 3 2 1 2 2 2 3 5 7 7 7
4 3 4 4 4 4 5 6 4 3 3 3 3 4 3 3 4 4 5 5 4 4 3 3 3 3 4 3 2 2 2 1 3 2 1 3 2 3 3 3 6 7 8
4 4 5 4 5 6 6 6 5 3 3 3 3 3 3 2 2 2 3 4 4 6 7 5 5 5 4 4 3 2 3 3 4 3 1 3 2 3 4 4 6 8 8
3 4 5 5 4 5 6 6 5 3 3 4 4 4 3 3 3 3 3 3 3 4 5 4 5 6 5 4 5 4 4 3 3 2 2 2 3 3 4 3 6 8 8
3 3 3 4 5 6 7 6 5 2 3 4 4 4 4 5 5 5 3 3 4 5 5 5 6 6 7 7 4 2 1 1 2 3 2 2 2 2 2 3 4 6 8
3 3 3 4 5 5 6 7 6 3 4 4 3 4 5 5 5 6 4 4 5 5 4 3 4 5 4 5 5 5 4 3 2 3 3 2 2 1 2 2 2 2 3
Wind_Direction
168 175 177 175 177 178 184 183 188 206 220 225 219 211 202 200 192 193 201 201 200 201 201 203 206 209 210 210 214 216 215 213 213 212 213 215 214 212 210 210 210 209 208
163 168 171 173 183 187 188 183 192 198 213 218 225 219 211 197 190 193 198 201 205 205 207 209 210 213 212 212 216 218 219 219 217 217 216 216 216 215 215 213 213 211 211
161 161 163 173 187 182 176 174 194 197 214 222 234 237 218 194 193 196 197 200 206 212 214 215 217 219 219 219 222 221 223 223 219 217 218 218 217 217 219 218 216 215 213
161 154 160 174 174 164 164 170 181 181 221 228 235 245 234 211 202 201 198 201 202 211 220 222 222 223 225 226 227 225 227 226 223 219 218 218 218 217 218 220 219 218 217
160 154 164 171 155 157 171 188 176 178 198 225 242 242 235 223 213 208 204 207 209 210 215 227 227 226 229 232 232 229 227 222 220 218 218 219 219 219 219 220 220 220 219
156 152 158 162 150 152 174 181 177 188 191 202 241 269 259 239 218 214 212 209 210 213 211 220 225 233 233 236 238 236 229 225 223 221 221 220 220 220 221 220 223 223 222
157 153 158 159 155 165 187 181 172 182 209 162 102 333 314 271 233 222 217 211 214 215 208 215 211 214 230 232 235 239 237 232 229 225 222 221 222 223 222 223 224 224 223
174 166 157 160 172 163 171 179 166 157 214 168 145 111 341 338 325 248 219 216 220 212 211 211 206 205 214 222 231 233 238 238 237 235 230 228 226 225 226 227 227 225 225
183 161 155 154 178 177 184 195 181 169 191 230 175 154 159 243 303 314 272 243 227 214 217 208 209 212 211 219 231 233 235 241 243 240 236 234 233 231 230 230 227 227 227
168 151 156 163 167 175 186 204 190 180 170 212 253 205 185 178 181 295 311 292 253 232 221 214 215 215 211 214 223 225 228 234 239 243 242 240 237 235 233 234 231 228 227
172 165 159 157 165 176 193 202 188 187 182 191 210 218 221 210 173 177 269 297 306 274 238 226 215 213 212 213 222 227 227 230 235 242 249 245 237 235 231 233 233 232 228
249 203 163 163 175 186 201 206 202 198 201 200 200 196 186 194 211 192 227 261 278 283 264 246 228 215 211 214 225 226 223 225 232 240 248 251 240 233 233 231 233 234 231
214 226 200 187 195 203 207 202 195 212 210 206 208 217 211 214 200 188 189 240 275 284 279 261 238 221 219 213 224 222 223 222 226 234 240 248 241 234 231 230 233 236 236
213 214 203 201 201 198 209 201 206 224 224 221 228 224 218 226 201 189 185 178 266 296 290 271 273 230 226 216 223 208 217 219 226 232 238 242 233 225 223 224 223 228 235
210 204 197 201 210 207 210 180 214 241 233 229 237 235 228 238 220 211 191 178 175 235 275 267 265 252 228 218 221 210 214 218 220 225 230 232 223 218 219 218 218 216 221
209 184 189 199 211 210 194 176 214 249 231 255 239 239 261 259 253 231 205 201 187 191 238 251 245 248 241 236 221 213 223 223 228 228 226 227 224 217 212 214 215 215 217
191 192 196 194 194 196 190 184 211 219 234 264 264 236 253 255 257 261 236 218 210 186 230 272 262 252 239 246 250 236 234 229 234 229 226 223 222 218 213 213 214 215 217
198 197 194 193 195 197 196 193 219 226 224 239 250 247 259 261 251 262 249 246 239 210 203 251 273 259 243 238 243 247 245 232 230 228 223 222 222 220 219 219 215 214 219
204 200 192 195 199 200 201 213 217 226 226 233 233 229 241 234 248 249 242 247 253 252 207 214 263 270 265 252 253 265 256 257 245 233 224 227 227 223 221 223 222 221 221
204 208 208 203 200 202 207 222 222 227 237 246 239 229 228 223 229 232 233 236 230 234 222 213 257 276 274 268 240 250 275 273 263 261 250 235 227 228 229 228 226 226 224
216 213 212 216 210 208 220 220 223 229 236 251 253 242 236 232 234 229 225 214 195 204 212 221 243 265 267 260 249 240 251 274 275 249 255 255 238 244 244 238 232 226 222
222 215 217 218 222 232 233 225 218 226 234 240 252 259 255 249 255 249 238 223 203 200 210 216 231 238 248 243 246 237 233 257 277 255 210 262 221 244 248 236 235 223 220
224 225 227 219 225 236 234 232 228 222 229 236 243 250 262 258 255 258 256 250 244 235 217 207 222 234 235 229 221 237 230 225 246 242 192 264 250 251 254 247 233 221 220
227 231 233 227 227 240 234 232 229 222 233 240 240 236 234 246 246 233 238 252 259 255 238 223 227 237 237 230 214 220 227 247 268 253 181 240 255 253 257 251 240 224 222
244 241 230 220 227 245 236 230 216 210 236 250 250 242 230 237 245 226 217 238 263 273 269 255 248 247 250 244 220 187 221 227 274 270 214 205 249 267 271 262 250 230 226
227 238 240 233 231 242 237 224 208 208 230 248 259 251 242 237 236 221 213 220 247 262 272 289 280 276 266 258 229 203 201 211 233 260 236 196 228 219 281 274 255 239 229